User: anonymous   Login
Location: Blandford
(50.8667°N, 2.1667°W)
Time: 02:14:39
(UTC+00:00)
Language:

SPOT 1/Viking Rocket - Orbit

View from above orbital plane
View from above orbital plane
View from above satellite
View from above satellite

Ground track
Ground track

The orbit data is extracted from the following two-line orbital elements,

1 16615U 86019C   20192.43583062  .00000010  00000-0  19980-4 0  9990
2 16615  98.4759 257.2385 0011352 349.2018  21.3645 14.31799732799657
Epoch (UTC): 10 July 2020 10:27:35
Eccentricity: 0.0011352
inclination: 98.4759°
perigee height: 777 km
apogee height: 794 km
right ascension of ascending node: 257.2385°
argument of perigee: 349.2018°
revolutions per day: 14.31799732
mean anomaly at epoch: 21.3645°
orbit number at epoch: 79965

The dashed part of the orbit path shows where the satellite is in the earth's shadow,  

DLR